• In Hungary
  • List of Countries
  • For 7 days
  • Water Temperature
  • Satellite Maps
  • Weather Map
  • News
  • Weather Widgets
  • user-avatar
    Login

    Hourly Weather Wiktoria

    Today, 24 September, Sunday

    Time Temperature Precipitation Wind Pressure Humidity
    00:00 +12°C° 0 mm 2 mps 739 mmHg 84%
    01:00 +10°C° 0 mm 2 mps 739 mmHg 88%
    02:00 +9°C° 0 mm 2 mps 739 mmHg 89%
    03:00 +8°C° 0 mm 2 mps 739 mmHg 91%
    04:00 +8°C° 0 mm 2 mps 739 mmHg 93%
    05:00 +8°C° 0 mm 3 mps 739 mmHg 92%
    06:00 +8°C° 0 mm 3 mps 740 mmHg 91%
    07:00 +8°C° 0 mm 3 mps 740 mmHg 90%
    08:00 +10°C° 0.1 mm 4 mps 740 mmHg 85%
    09:00 +11°C° 0.1 mm 6 mps 740 mmHg 80%
    10:00 +12°C° 0.1 mm 7 mps 740 mmHg 76%
    11:00 +14°C° 0.2 mm 7 mps 740 mmHg 71%
    12:00 +15°C° 0.2 mm 8 mps 740 mmHg 67%
    13:00 +16°C° 0.2 mm 8 mps 739 mmHg 63%
    14:00 +16°C° 0.1 mm 8 mps 739 mmHg 62%
    15:00 +16°C° 0.1 mm 8 mps 739 mmHg 60%
    16:00 +16°C° 0.1 mm 7 mps 739 mmHg 59%
    17:00 +15°C° 0 mm 6 mps 739 mmHg 60%
    18:00 +13°C° 0 mm 5 mps 740 mmHg 61%
    19:00 +12°C° 0 mm 4 mps 740 mmHg 62%
    20:00 +11°C° 0 mm 4 mps 741 mmHg 63%
    21:00 +11°C° 0 mm 4 mps 741 mmHg 63%
    22:00 +10°C° 0 mm 5 mps 742 mmHg 63%
    23:00 +9°C° 0 mm 5 mps 742 mmHg 68%

    Tomorrow, 25 September, Monday

    Time Temperature Precipitation Wind Pressure Humidity
    00:00 +9°C° 0 mm 5 mps 742 mmHg 72%
    01:00 +9°C° 0 mm 5 mps 743 mmHg 77%
    02:00 +8°C° 0 mm 4 mps 743 mmHg 82%
    03:00 +7°C° 0 mm 4 mps 743 mmHg 87%
    04:00 +8°C° 0 mm 3 mps 743 mmHg 92%
    05:00 +8°C° 0 mm 3 mps 744 mmHg 93%
    06:00 +8°C° 0 mm 2 mps 744 mmHg 94%
    07:00 +8°C° 0 mm 2 mps 745 mmHg 95%
    08:00 +9°C° 0 mm 3 mps 745 mmHg 88%
    09:00 +11°C° 0 mm 3 mps 746 mmHg 81%
    10:00 +13°C° 0 mm 4 mps 746 mmHg 74%
    11:00 +14°C° 0.3 mm 4 mps 746 mmHg 72%
    12:00 +15°C° 0.3 mm 5 mps 746 mmHg 71%
    13:00 +15°C° 0.3 mm 5 mps 746 mmHg 69%
    14:00 +15°C° 0.3 mm 5 mps 746 mmHg 69%
    15:00 +15°C° 0.3 mm 5 mps 746 mmHg 69%
    16:00 +15°C° 0.3 mm 4 mps 746 mmHg 69%
    17:00 +13°C° 0.1 mm 4 mps 746 mmHg 75%
    18:00 +12°C° 0.1 mm 3 mps 747 mmHg 80%
    19:00 +10°C° 0.1 mm 2 mps 748 mmHg 86%
    20:00 +9°C° 0 mm 2 mps 748 mmHg 88%
    21:00 +8°C° 0 mm 2 mps 749 mmHg 90%
    22:00 +7°C° 0 mm 2 mps 749 mmHg 92%
    23:00 +6°C° 0 mm 2 mps 749 mmHg 92%

    Day after tomorrow, 26 September, Tuesday

    Time Temperature Precipitation Wind Pressure Humidity
    00:00 +6°C° 0 mm 2 mps 750 mmHg 92%
    01:00 +5°C° 0 mm 2 mps 750 mmHg 93%
    02:00 +6°C° 0 mm 1 mps 750 mmHg 93%
    03:00 +5°C° 0 mm 1 mps 750 mmHg 93%
    04:00 +5°C° 0 mm 1 mps 750 mmHg 93%
    05:00 +5°C° 0 mm 1 mps 750 mmHg 92%
    06:00 +4°C° 0 mm 2 mps 750 mmHg 92%
    07:00 +5°C° 0 mm 2 mps 750 mmHg 92%
    08:00 +7°C° 0 mm 2 mps 750 mmHg 82%
    09:00 +10°C° 0 mm 2 mps 750 mmHg 73%
    10:00 +14°C° 0 mm 1 mps 750 mmHg 63%
    11:00 +15°C° 0 mm 2 mps 750 mmHg 60%
    12:00 +16°C° 0 mm 2 mps 749 mmHg 56%
    13:00 +18°C° 0 mm 2 mps 749 mmHg 52%
    14:00 +18°C° 0 mm 2 mps 748 mmHg 54%
    15:00 +18°C° 0 mm 2 mps 747 mmHg 55%
    16:00 +18°C° 0 mm 2 mps 747 mmHg 57%
    17:00 +16°C° 0 mm 2 mps 747 mmHg 64%
    18:00 +14°C° 0 mm 2 mps 747 mmHg 71%
    19:00 +11°C° 0 mm 3 mps 747 mmHg 79%
    20:00 +11°C° 0 mm 3 mps 747 mmHg 75%
    21:00 +11°C° 0 mm 3 mps 747 mmHg 71%
    22:00 +11°C° 0 mm 3 mps 747 mmHg 67%
    23:00 +12°C° 0 mm 4 mps 746 mmHg 62%

    27 September, Wednesday

    Time Temperature Precipitation Wind Pressure Humidity
    00:00 +12°C° 0 mm 4 mps 745 mmHg 57%
    01:00 +13°C° 0 mm 5 mps 744 mmHg 52%
    02:00 +13°C° 0 mm 5 mps 743 mmHg 52%
    03:00 +13°C° 0 mm 5 mps 742 mmHg 52%
    04:00 +13°C° 0 mm 6 mps 742 mmHg 52%
    05:00 +13°C° 0 mm 5 mps 742 mmHg 57%
    06:00 +12°C° 0 mm 4 mps 742 mmHg 63%
    07:00 +11°C° 0 mm 3 mps 742 mmHg 68%
    08:00 +14°C° 0 mm 4 mps 742 mmHg 63%
    09:00 +16°C° 0 mm 5 mps 742 mmHg 59%
    10:00 +20°C° 0 mm 6 mps 742 mmHg 54%
    11:00 +21°C° 0 mm 7 mps 742 mmHg 51%
    12:00 +21°C° 0 mm 7 mps 742 mmHg 48%
    13:00 +22°C° 0 mm 8 mps 742 mmHg 45%
    14:00 +22°C° 0 mm 7 mps 741 mmHg 49%
    15:00 +22°C° 0 mm 6 mps 741 mmHg 54%
    16:00 +21°C° 0 mm 5 mps 740 mmHg 59%
    17:00 +19°C° 0 mm 4 mps 741 mmHg 60%
    18:00 +17°C° 0 mm 4 mps 741 mmHg 62%
    19:00 +14°C° 0 mm 4 mps 742 mmHg 64%
    20:00 +13°C° 0 mm 3 mps 743 mmHg 67%
    21:00 +12°C° 0 mm 3 mps 743 mmHg 69%
    22:00 +11°C° 0 mm 3 mps 744 mmHg 72%
    23:00 +10°C° 0 mm 2 mps 744 mmHg 77%

    28 September, Thursday

    Time Temperature Precipitation Wind Pressure Humidity
    00:00 +9°C° 0 mm 2 mps 744 mmHg 82%
    01:00 +8°C° 0 mm 2 mps 744 mmHg 88%
    02:00 +8°C° 0 mm 2 mps 745 mmHg 90%
    03:00 +7°C° 0 mm 2 mps 745 mmHg 92%
    04:00 +6°C° 0 mm 2 mps 745 mmHg 94%
    05:00 +7°C° 0 mm 2 mps 746 mmHg 94%
    06:00 +7°C° 0 mm 2 mps 747 mmHg 94%
    07:00 +8°C° 0 mm 2 mps 748 mmHg 93%
    08:00 +9°C° 0 mm 2 mps 748 mmHg 85%
    09:00 +12°C° 0 mm 2 mps 748 mmHg 77%
    10:00 +14°C° 0 mm 2 mps 748 mmHg 69%
    11:00 +15°C° 0 mm 2 mps 748 mmHg 68%
    12:00 +15°C° 0 mm 2 mps 748 mmHg 67%
    13:00 +16°C° 0 mm 2 mps 748 mmHg 65%
    14:00 +16°C° 0 mm 2 mps 748 mmHg 66%
    15:00 +16°C° 0 mm 2 mps 748 mmHg 66%
    16:00 +16°C° 0 mm 3 mps 747 mmHg 66%
    17:00 +14°C° 0 mm 2 mps 748 mmHg 72%
    18:00 +13°C° 0 mm 2 mps 749 mmHg 79%
    19:00 +10°C° 0 mm 2 mps 749 mmHg 85%
    20:00 +9°C° 0 mm 2 mps 749 mmHg 87%
    21:00 +8°C° 0 mm 2 mps 750 mmHg 88%
    22:00 +7°C° 0 mm 2 mps 750 mmHg 89%
    23:00 +8°C° 0 mm 1 mps 750 mmHg 89%

    29 September, Friday

    Time Temperature Precipitation Wind Pressure Humidity
    00:00 +7°C° 0 mm 1 mps 749 mmHg 89%
    01:00 +7°C° 0 mm 1 mps 749 mmHg 89%
    02:00 +6°C° 0 mm 1 mps 749 mmHg 89%
    03:00 +6°C° 0 mm 1 mps 749 mmHg 90%
    04:00 +4°C° 0 mm 0 mps 749 mmHg 90%
    05:00 +6°C° 0 mm 1 mps 749 mmHg 90%
    06:00 +7°C° 0 mm 1 mps 750 mmHg 89%
    07:00 +7°C° 0 mm 1 mps 750 mmHg 89%
    08:00 +9°C° 0 mm 2 mps 750 mmHg 81%
    09:00 +12°C° 0 mm 2 mps 749 mmHg 73%
    10:00 +13°C° 0 mm 3 mps 749 mmHg 65%
    11:00 +14°C° 0 mm 4 mps 749 mmHg 63%
    12:00 +15°C° 0 mm 4 mps 748 mmHg 61%
    13:00 +15°C° 0 mm 5 mps 747 mmHg 59%
    14:00 +15°C° 0.1 mm 4 mps 747 mmHg 59%
    15:00 +15°C° 0.1 mm 4 mps 746 mmHg 60%
    16:00 +15°C° 0.1 mm 4 mps 745 mmHg 60%
    17:00 +14°C° 0 mm 3 mps 746 mmHg 65%
    18:00 +13°C° 0 mm 2 mps 746 mmHg 69%
    19:00 +12°C° 0 mm 2 mps 746 mmHg 74%
    20:00 +10°C° 0 mm 2 mps 746 mmHg 75%
    21:00 +9°C° 0 mm 2 mps 746 mmHg 77%
    22:00 +9°C° 0 mm 3 mps 746 mmHg 78%
    23:00 +8°C° 0 mm 3 mps 746 mmHg 82%
    Show more